Find Starlink 2722

NORAD ID: 48472 Int'l Des: 2021-040 Owner: SPXS Country: US Constellation: starlink operational
LEOCIRCULARSTARLINK_TYPE

Current View

Loading 3D Globe...

About Starlink 2722

Description loading...

Upcoming Passes

Passes for default location (London). Set your location on the main map for personalized predictions.

Altitude History

Loading altitude history...

Two-Line Element Set

1 48472U 21040AW 26150.09422226 .00023052 00000-0 13567-2 0 9999
2 48472 53.0580 184.1070 0002434 5.7289 354.3729 15.11553157278782
Epoch: May 30, 2026 • Age: 10 hours

Current Status

Altitude 535.3 km
Velocity 7.60 km/s
Sub-Earth Point 45.81°N, 163.6°E
Launch Date May 9, 2021
Age 5 years
Type internet

Technical Details

Classification Payload
Mass 260.00 kg
Dry Mass 248.00 kg
Total Mass 260.00 kg
Length 0.20 m
Diameter 2.80 m
Span 9.00 m
Shape Box + pan
Manufacturer SPXS
Bus Type Starlink
Phase Status In Orbit
Owner/State SPXS/US

Most Searched